User: anonymous   Login
Location: Caltech
(34.1382°N, 118.1253°W)
Time: 16:33:18
(UTC-08:00)
Language:

ERBS - Orbit

View from above orbital plane
View from above orbital plane
View from above satellite
View from above satellite

Ground track
Ground track

The orbit data is extracted from the following two-line orbital elements,

1 15354U 84108B   15060.43221011  .00011096  00000-0  34661-3 0  9995
2 15354 057.0123 127.9807 0012415 339.3016 020.7530 15.33661718669010
Epoch (UTC): 01 March 2015 10:22:22
Eccentricity: 0.0012415
inclination: 57.0123°
perigee height: 456 km
apogee height: 473 km
right ascension of ascending node: 127.9807°
argument of perigee: 339.3016°
revolutions per day: 15.33661718
mean anomaly at epoch: 20.7530°
orbit number at epoch: 66901

The dashed part of the orbit path shows where the satellite is in the earth's shadow,  

DLR